Simultaneous Nadir Overpasses (SNOs) Predictions

Prediction of SNOs between AQUA and GOES-15 Satellite Orbit:

Table of predicted SNOs for the next 14.0 days since TLE Epoch: 4/24/2020
Index Date Time (AQUA) AQUA Lat,Lon GOES-15 Lat,Lon Distance(km) Time Diff (sec)
1 04/25/2020 10:01:21 -0.55,-126.48 -0.16,-128.14 189.99 80
2 04/25/2020 22:22:45 -0.58,-131.67 0.14,-128.14 399.99 80
3 04/27/2020 22:10:33 0.04,-128.71 0.14,-128.17 60.29 80
4 04/29/2020 21:58:21 0.67,-125.75 0.14,-128.20 278.80 80
5 04/30/2020 10:19:34 0.48,-130.89 -0.12,-128.22 304.78 80
6 05/02/2020 10:07:22 -0.16,-127.93 -0.12,-128.23 33.76 80
7 05/04/2020 09:55:11 -0.79,-124.98 -0.12,-128.25 371.74 80
8 05/04/2020 22:16:34 -0.33,-130.16 0.10,-128.24 219.45 80
9 05/06/2020 22:04:22 0.31,-127.21 0.11,-128.25 118.22 80
10 05/07/2020 10:25:37 0.78,-132.36 -0.08,-128.27 465.02 80




NCC Satellite Simultaneous Nadir Overpasses (SNOs) Prediction Service
